Location: Observatory Point
(48.1504°N, 123.6376°W)
Time: 01:41:37
(UTC-08:00)

N. Korean satellite - Visible Passes

Search period start: 23 January 2018 00:00
Search period end: 02 February 2018 00:00
Orbit: 458 x 515 km, 97.2° (Epoch: 22 January)

Date Brightness Start Highest point End Pass type
(mag) Time Alt. Az. Time Alt. Az. Time Alt. Az.
23 Jan 6.4 17:57:40 10° SSE 18:01:13 78° ENE 18:04:45 10° N visible
24 Jan 7.1 06:54:40 10° NNE 06:58:07 62° E 07:01:33 10° S visible
24 Jan 7.0 17:34:16 10° SE 17:37:36 39° ENE 17:40:54 10° N visible
24 Jan 9.8 19:09:05 10° SW 19:11:18 16° W 19:13:30 10° NW visible
25 Jan 8.6 06:31:14 10° NNE 06:34:21 31° E 06:37:29 10° SSE visible
25 Jan 8.8 18:44:22 10° SSW 18:47:27 28° W 18:50:32 10° NW visible
26 Jan 9.7 06:08:10 10° NE 06:10:32 17° E 06:12:53 10° SE visible
26 Jan 7.4 18:20:13 10° S 18:23:41 53° W 18:27:08 10° NNW visible
27 Jan 6.4 17:56:28 10° SSE 18:00:00 76° ENE 18:03:29 10° N visible
28 Jan 7.1 06:53:26 10° NNE 06:56:53 60° ESE 07:00:19 10° S visible
28 Jan 9.8 19:07:51 10° SW 19:10:03 16° W 19:12:15 10° NW visible
29 Jan 8.7 06:29:59 10° NNE 06:33:06 30° E 06:36:14 10° SSE visible
29 Jan 8.8 18:43:08 10° SSW 18:46:12 28° W 18:49:16 10° NW visible
30 Jan 9.8 06:06:56 10° NE 06:09:16 17° E 06:11:37 10° SE visible
30 Jan 7.3 18:18:59 10° S 18:22:25 55° W 18:25:51 10° NNW visible
31 Jan 6.4 17:55:15 10° SSE 17:58:43 74° ENE 18:02:11 10° N visible
01 Feb 7.2 06:52:09 10° NNE 06:55:35 58° E 06:59:04 10° S visible
01 Feb 9.8 19:06:33 10° SW 19:08:46 16° W 19:10:59 10° NW visible
